Falfurrias, TX

10:16 PM CST on November 22, 2017 (GMT -0600)
Falfurrias

Weather History for KBKS - November, 2012

Change the Weather History Date:

Monday, November 5, 2012

  Actual Average (KNQI) Record (KNQI)
Temperature  
Mean Temperature 72 °F -  
Max Temperature 85 °F 76 °F 97 °F (2017)
Min Temperature 59 °F 56 °F 39 °F (2010)
Cooling Degree Days 7    
Growing Degree Days 22 (Base 50)    
Moisture  
Dew Point 60 °F    
Average Humidity 72    
Maximum Humidity 95    
Minimum Humidity 36    
Precipitation  
Precipitation 0.53 in - - ()
Sea Level Pressure  
Sea Level Pressure 30.01 in    
Wind  
Wind Speed 1 mph (SE)    
Max Wind Speed 8 mph    
Max Gust Speed -    
Visibility 9 miles    
Events      
Averages and records for this station are not official NWS values.
T = Trace of Precipitation, MM = Missing Value Source: NWS Daily Summary

Daily Weather History Graph

Daily Weather History Graph

Search for Another Location

Airport or City:

Trip Planner

Search our weather history database for the weather conditions in past years. The results will help you decide how hot, cold, wet, or windy it might be!

Date:

Astronomy

Nov. 05, 2012 Rise Set
Actual Time 6:45 AM CST 5:46 PM CST
Civil Twilight 6:21 AM CST 6:10 PM CST
Nautical Twilight 5:53 AM CST 6:37 PM CST
Astronomical Twilight 5:26 AM CST 7:05 PM CST
Moon 11:23 PM CST (11/5) 12:05 PM CST (11/5)
Length of Visible Light 11h 48m
Length of Day
11h 00m
Waning Gibbous, 62% of the Moon is Illuminated
Nov 5
Waning Gibbous
Nov 6
Last Quarter
Nov 13
New
Nov 20
First Quarter
Nov 28
Full

Hourly Weather History & Observations

Time (CST) Temp. Heat Index Dew Point Humidity Pressure Visibility Wind Dir Wind Speed Gust Speed Precip Events Conditions
12:15 AM 63.7 °F - 61.3 °F 92% 30.07 in 7.0 mi Calm Calm - N/A   Scattered Clouds
12:35 AM 63.9 °F - 61.5 °F 92% 30.07 in 10.0 mi Calm Calm - N/A   Mostly Cloudy
12:55 AM 64.2 °F - 61.5 °F 91% 30.06 in 10.0 mi Calm Calm - N/A   Scattered Clouds
1:15 AM 63.5 °F - 61.2 °F 92% 30.06 in 10.0 mi Calm Calm - N/A   Clear
1:35 AM 63.5 °F - 61.0 °F 91% 30.06 in 10.0 mi Calm Calm - N/A   Mostly Cloudy
1:55 AM 62.8 °F - 60.4 °F 92% 30.06 in 7.0 mi West 3.5 mph - N/A   Scattered Clouds
2:15 AM 62.6 °F - 60.3 °F 92% 30.06 in 7.0 mi Calm Calm - N/A   Clear
2:35 AM 62.1 °F - 59.9 °F 93% 30.05 in 7.0 mi Calm Calm - N/A   Clear
3:15 AM 61.9 °F - 59.9 °F 93% 30.03 in 7.0 mi Calm Calm - N/A   Clear
3:35 AM 61.9 °F - 59.9 °F 93% 30.03 in 7.0 mi Calm Calm - N/A   Clear
3:55 AM 61.3 °F - 59.2 °F 93% 30.03 in 7.0 mi Calm Calm - N/A   Clear
4:15 AM 60.8 °F - 59.0 °F 94% 30.03 in 7.0 mi Calm Calm - N/A   Clear
4:35 AM 60.8 °F - 58.8 °F 93% 30.03 in 10.0 mi Calm Calm - N/A   Clear
5:15 AM 60.1 °F - 58.1 °F 93% 30.03 in 7.0 mi Calm Calm - N/A   Clear
5:35 AM 59.9 °F - 57.9 °F 93% 30.03 in 7.0 mi Calm Calm - N/A   Clear
5:55 AM 59.5 °F - 57.7 °F 94% 30.03 in 7.0 mi Calm Calm - N/A   Clear
6:15 AM 59.0 °F - 57.2 °F 94% 30.03 in 10.0 mi Calm Calm - N/A   Clear
6:35 AM 59.0 °F - 57.2 °F 94% 30.04 in 7.0 mi Calm Calm - N/A   Mostly Cloudy
7:15 AM 59.4 °F - 57.6 °F 94% 30.05 in 2.0 mi Calm Calm - N/A   Overcast
7:55 AM 60.3 °F - 58.8 °F 95% 30.05 in 0.2 mi Calm Calm - N/A   Overcast
8:15 AM 61.0 °F - 59.4 °F 94% 30.06 in 0.5 mi Calm Calm - N/A   Overcast
8:55 AM 64.2 °F - 62.6 °F 94% 30.07 in 5.0 mi Calm Calm - N/A   Clear
9:15 AM 64.8 °F - 63.3 °F 95% 30.08 in 10.0 mi Calm Calm - N/A   Clear
9:35 AM 65.8 °F - 63.9 °F 93% 30.08 in 10.0 mi Calm Calm - N/A   Clear
9:55 AM 70.3 °F - 61.9 °F 74% 30.08 in 10.0 mi Calm Calm - N/A   Clear
10:15 AM 72.1 °F - 61.3 °F 69% 30.08 in 10.0 mi Calm Calm - N/A   Clear
10:35 AM 74.8 °F - 61.3 °F 63% 30.07 in 10.0 mi South 5.8 mph - N/A   Clear
10:55 AM 75.9 °F - 58.8 °F 55% 30.07 in 10.0 mi SSE 4.6 mph - N/A   Clear
11:15 AM 77.7 °F - 58.6 °F 52% 30.07 in 10.0 mi SE 3.5 mph - N/A   Clear
11:35 AM 78.3 °F - 59.2 °F 52% 30.06 in 10.0 mi WSW 3.5 mph - N/A   Clear
12:15 PM 79.7 °F - 57.9 °F 47% 30.03 in 10.0 mi Calm Calm - N/A   Clear
12:35 PM 80.6 °F 80.7 °F 57.0 °F 44% 30.02 in 10.0 mi Calm Calm - N/A   Clear
12:55 PM 81.9 °F 81.8 °F 57.9 °F 44% 30.01 in 10.0 mi SSE 4.6 mph - N/A   Clear
1:15 PM 82.0 °F 81.6 °F 56.3 °F 41% 29.99 in 10.0 mi SSE 3.5 mph - N/A   Clear
1:35 PM 82.9 °F 82.1 °F 55.9 °F 39% 29.98 in 10.0 mi Calm Calm - N/A   Clear
2:15 PM 83.5 °F 82.5 °F 55.4 °F 38% 29.96 in 10.0 mi West 3.5 mph - N/A   Clear
2:35 PM 83.5 °F 82.5 °F 55.0 °F 38% 29.96 in 10.0 mi Calm Calm - N/A   Clear
2:55 PM 84.2 °F 83.0 °F 55.6 °F 37% 29.95 in 10.0 mi NNE 4.6 mph - N/A   Clear
3:15 PM 84.4 °F 83.2 °F 55.6 °F 37% 29.94 in 10.0 mi Calm Calm - N/A   Clear
3:35 PM 85.1 °F 83.9 °F 55.9 °F 37% 29.94 in 10.0 mi Calm Calm - N/A   Clear
3:55 PM 84.9 °F 83.6 °F 55.4 °F 36% 29.94 in 10.0 mi NNE 3.5 mph - N/A   Clear
4:15 PM 83.3 °F 82.6 °F 56.3 °F 40% 29.93 in 10.0 mi Calm Calm - N/A   Clear
4:35 PM 84.6 °F 83.4 °F 55.9 °F 37% 29.93 in 10.0 mi NE 3.5 mph - N/A   Clear
4:55 PM 84.0 °F 82.9 °F 55.0 °F 37% 29.94 in 10.0 mi Calm Calm - N/A   Clear
5:15 PM 83.5 °F 82.8 °F 57.0 °F 40% 29.94 in 10.0 mi Calm Calm - N/A   Scattered Clouds
5:35 PM 82.6 °F 82.6 °F 59.4 °F 45% 29.94 in 10.0 mi East 5.8 mph - N/A   Scattered Clouds
5:55 PM 80.1 °F 81.8 °F 64.8 °F 59% 29.95 in 10.0 mi ESE 8.1 mph - N/A   Mostly Cloudy
6:15 PM 79.0 °F - 64.4 °F 61% 29.96 in 10.0 mi ESE 6.9 mph - N/A   Scattered Clouds
6:35 PM 77.9 °F - 64.6 °F 63% 29.96 in 10.0 mi SE 4.6 mph - N/A   Scattered Clouds
6:55 PM 77.0 °F - 64.6 °F 65% 29.97 in 10.0 mi ESE 8.1 mph - N/A   Scattered Clouds
7:15 PM 76.5 °F - 64.4 °F 66% 29.98 in 10.0 mi ESE 8.1 mph - N/A   Clear
7:35 PM 75.9 °F - 64.4 °F 67% 29.98 in 10.0 mi ESE 6.9 mph - N/A   Clear
8:15 PM 74.8 °F - 64.9 °F 71% 29.99 in 10.0 mi SE 5.8 mph - N/A   Clear
8:35 PM 74.5 °F - 65.3 °F 73% 29.99 in 10.0 mi SE 6.9 mph - N/A   Clear
8:55 PM 73.6 °F - 65.5 °F 76% 30.00 in 10.0 mi SE 4.6 mph - N/A   Clear
9:15 PM 73.0 °F - 65.7 °F 78% 30.00 in 10.0 mi SE 3.5 mph - N/A   Clear
9:35 PM 72.5 °F - 65.7 °F 79% 30.00 in 10.0 mi SSE 4.6 mph - N/A   Clear
10:15 PM 71.1 °F - 65.3 °F 82% 30.01 in 10.0 mi SSE 3.5 mph - N/A   Clear
10:35 PM 69.8 °F - 65.1 °F 85% 30.01 in 10.0 mi Calm Calm - N/A   Clear
10:55 PM 69.1 °F - 64.8 °F 86% 30.00 in 10.0 mi SE 3.5 mph - N/A   Clear
11:15 PM 68.7 °F - 64.4 °F 86% 30.01 in 10.0 mi SSE 3.5 mph - N/A   Clear
11:35 PM 68.0 °F - 64.2 °F 88% 30.00 in 10.0 mi South 3.5 mph - N/A   Clear
11:55 PM 67.5 °F - 63.7 °F 88% 30.00 in 10.0 mi South 3.5 mph - N/A   Clear